TimeEST,TemperatureF,Dew PointF,Humidity,Sea Level PressureIn,VisibilityMPH,Wind Direction,Wind SpeedMPH,Gust SpeedMPH,PrecipitationIn,Events,Conditions,WindDirDegrees,DateUTC
12:55 AM,34.0,28.0,79,30.06,10.0,NW,16.1,24.2,0.00,,Overcast,310,2012-12-14 05:55:00
1:55 AM,32.0,27.0,82,30.08,10.0,NW,10.4,21.9,N/A,,Overcast,310,2012-12-14 06:55:00
2:55 AM,30.9,25.0,79,30.10,10.0,NW,12.7,23.0,0.00,,Overcast,310,2012-12-14 07:55:00
3:55 AM,30.0,23.0,75,30.12,10.0,WNW,18.4,24.2,0.00,,Overcast,290,2012-12-14 08:55:00
4:30 AM,28.9,23.0,78,30.10,10.0,WNW,10.4,-,N/A,,Overcast,300,2012-12-14 09:30:00
4:41 AM,28.9,23.0,78,30.10,10.0,NW,11.5,-,N/A,,Overcast,320,2012-12-14 09:41:00
4:55 AM,28.9,21.9,75,30.13,10.0,NW,12.7,21.9,N/A,,Overcast,310,2012-12-14 09:55:00
5:55 AM,28.9,21.9,75,30.14,10.0,NW,11.5,19.6,N/A,,Overcast,310,2012-12-14 10:55:00
6:55 AM,28.9,23.0,78,30.17,10.0,NNW,13.8,20.7,N/A,,Overcast,330,2012-12-14 11:55:00
7:55 AM,28.0,21.9,78,30.18,10.0,NNW,11.5,17.3,N/A,,Overcast,330,2012-12-14 12:55:00
8:55 AM,28.0,21.9,78,30.20,10.0,NW,9.2,-,N/A,,Overcast,320,2012-12-14 13:55:00
9:52 AM,28.4,19.4,69,30.21,10.0,North,6.9,-,N/A,,Overcast,350,2012-12-14 14:52:00
9:55 AM,28.0,19.9,72,30.24,10.0,NNW,6.9,-,N/A,,Overcast,340,2012-12-14 14:55:00
10:55 AM,28.0,19.9,72,30.25,10.0,NNW,4.6,-,N/A,,Overcast,340,2012-12-14 15:55:00
11:55 AM,28.9,21.0,72,30.25,10.0,NNW,8.1,-,N/A,,Overcast,330,2012-12-14 16:55:00
12:55 PM,30.0,21.0,69,30.25,10.0,NNW,4.6,-,N/A,,Overcast,340,2012-12-14 17:55:00
1:55 PM,30.0,21.0,69,30.25,10.0,NNW,4.6,-,0.00,,Overcast,330,2012-12-14 18:55:00
2:55 PM,30.0,21.9,72,30.24,10.0,NNW,3.5,-,0.00,,Overcast,330,2012-12-14 19:55:00
3:24 PM,28.9,21.0,72,30.22,10.0,West,3.5,-,N/A,,Scattered Clouds,270,2012-12-14 20:24:00
3:55 PM,28.9,21.0,72,30.24,10.0,West,3.5,-,N/A,,Clear,280,2012-12-14 20:55:00
4:55 PM,27.0,19.9,75,30.25,10.0,Calm,Calm,-,N/A,,Clear,0,2012-12-14 21:55:00
5:55 PM,25.0,19.9,81,30.26,10.0,Calm,Calm,-,0.00,,Clear,0,2012-12-14 22:55:00
6:55 PM,24.1,19.0,81,30.25,10.0,Calm,Calm,-,0.00,,Clear,0,2012-12-14 23:55:00
7:55 PM,24.1,19.9,84,30.27,9.0,East,3.5,-,0.00,,Clear,90,2012-12-15 00:55:00
8:55 PM,23.0,17.1,78,30.29,10.0,East,5.8,-,0.00,,Clear,90,2012-12-15 01:55:00
9:55 PM,21.9,16.0,78,30.28,10.0,East,5.8,-,0.00,,Clear,90,2012-12-15 02:55:00
10:55 PM,21.0,15.1,78,30.30,10.0,East,6.9,-,0.00,,Clear,100,2012-12-15 03:55:00
11:55 PM,21.0,14.0,74,30.29,10.0,East,6.9,-,0.00,,Mostly Cloudy,90,2012-12-15 04:55:00